Nashua, NH

6:15 AM EDT on October 16, 2019 (GMT -0400)
Boire

Weather History for KASH - May, 2019

Change the Weather History Date:

Monday, May 27, 2019

  Actual Average Record
Temperature  
Mean Temperature 68 °F -  
Max Temperature 79 °F 72 °F 91 °F (1959)
Min Temperature 57 °F 45 °F 29 °F (1969)
Cooling Degree Days 2    
Growing Degree Days 18 (Base 50)    
Moisture  
Dew Point 49 °F    
Average Humidity 55    
Maximum Humidity 89    
Minimum Humidity 31    
Precipitation  
Precipitation 0.00 in - - ()
Sea Level Pressure  
Sea Level Pressure 29.93 in    
Wind  
Wind Speed 5 mph ()    
Max Wind Speed 13 mph    
Max Gust Speed 23 mph    
Visibility 10.0 miles    
Events      
Averages and records for this station are not official NWS values.
T = Trace of Precipitation, MM = Missing Value Source: Averaged Metar Reports

Daily Weather History Graph

Daily Weather History Graph

Search for Another Location

Airport or City:

Astronomy

May. 27, 2019 Rise Set
Actual Time 5:13 AM EDT 8:13 PM EDT
Civil Twilight 4:39 AM EDT 8:47 PM EDT
Nautical Twilight 3:56 AM EDT 9:30 PM EDT
Astronomical Twilight 3:06 AM EDT 10:21 PM EDT
Moon 2:08 AM EDT (5/27) 1:11 PM EDT (5/27)
Length of Visible Light 16h 07m
Length of Day
15h 00m
Last Quarter, 41% of the Moon is Illuminated
May 27
Last Quarter
Jun 3
New
Jun 10
First Quarter
Jun 17
Full
Jun 25
Last Quarter

Hourly Weather History & Observations

Time (EDT) Temp. Dew Point Humidity Pressure Visibility Wind Dir Wind Speed Gust Speed Precip Events Conditions
12:56 AM 66.0 °F 55.0 °F 68% 29.88 in 10.0 mi WNW 4.6 mph - N/A   Partly Cloudy
1:56 AM 61.0 °F 55.9 °F 83% 29.89 in 10.0 mi WNW 3.5 mph - N/A   Clear
2:56 AM 59.0 °F 55.0 °F 87% 29.89 in 10.0 mi WNW 3.5 mph - N/A   Clear
3:56 AM 57.9 °F 54.0 °F 87% 29.89 in 10.0 mi NW 4.6 mph - N/A   Clear
4:56 AM 57.0 °F 54.0 °F 89% 29.90 in 10.0 mi NNW 4.6 mph - N/A   Clear
5:56 AM 57.9 °F 53.1 °F 84% 29.92 in 10.0 mi WNW 3.5 mph - N/A   Clear
6:56 AM 63.0 °F 53.1 °F 70% 29.94 in 10.0 mi WNW 6.9 mph - N/A   Clear
7:56 AM 66.0 °F 52.0 °F 60% 29.94 in 10.0 mi NNW 6.9 mph - N/A   Clear
8:56 AM 70.0 °F 51.1 °F 51% 29.96 in 10.0 mi NNW 11.5 mph - N/A   Clear
9:56 AM 70.0 °F 46.9 °F 44% 29.96 in 10.0 mi NW 12.7 mph 20.7 mph N/A   Clear
10:56 AM 71.1 °F 46.0 °F 41% 29.94 in 10.0 mi North 12.7 mph - N/A   Clear
11:56 AM 73.0 °F 44.1 °F 35% 29.93 in 10.0 mi Variable 4.6 mph - N/A   Clear
12:56 PM 75.9 °F 43.0 °F 31% 29.92 in 10.0 mi NNW 9.2 mph 18.4 mph N/A   Scattered Clouds
1:56 PM 77.0 °F 44.1 °F 31% 29.91 in 10.0 mi NNW 9.2 mph 19.6 mph N/A   Scattered Clouds
2:56 PM 75.9 °F 45.0 °F 33% 29.91 in 10.0 mi North 11.5 mph 18.4 mph N/A   Scattered Clouds
3:56 PM 78.1 °F 46.0 °F 32% 29.89 in 10.0 mi NW 12.7 mph 23.0 mph N/A   Mostly Cloudy
4:56 PM 75.9 °F 46.0 °F 35% 29.89 in 10.0 mi NNW 6.9 mph - N/A   Mostly Cloudy
5:56 PM 75.0 °F 46.9 °F 37% 29.88 in 10.0 mi North 5.8 mph - N/A   Mostly Cloudy
6:56 PM 73.9 °F 46.9 °F 38% 29.90 in 10.0 mi NNW 4.6 mph - N/A   Mostly Cloudy
7:56 PM 70.0 °F 46.0 °F 42% 29.95 in 10.0 mi North 10.4 mph 18.4 mph N/A   Scattered Clouds
8:56 PM 64.9 °F 45.0 °F 48% 29.97 in 10.0 mi NNW 5.8 mph - N/A   Scattered Clouds
9:56 PM 63.0 °F 44.1 °F 50% 29.99 in 10.0 mi North 4.6 mph - N/A   Clear
10:56 PM 57.9 °F 46.0 °F 65% 30.01 in 10.0 mi Calm Calm - N/A   Clear
11:56 PM 57.0 °F 46.9 °F 69% 30.01 in 10.0 mi Calm Calm - N/A   Clear